Weather Roundup
Issued by NWS Chicago, IL

Home | Current Version | Previous Version | Text Only | Print | Product List | Glossary On
Versions: 1 2 3 4 5 6 7 8 9 10 11 12 13 14 15 16 17 18 19 20 21 22 23 24 25 26 27 28 29 30 31 32 33 34 35 36 37 38 39 40 41 42 43 44 45 46 47 48 49 50
000
NZUS59 KLOT 231212
HRRLOT

CHICAGO AREA WEATHER ROUNDUP
NATIONAL WEATHER SERVICE CHICAGO/ROMEOVILLE IL
600 AM CST THU FEB 23 2017

NOTE: "FAIR" INDICATES FEW OR NO CLOUDS BELOW 12,000 FEET WITH NO
SIGNIFICANT WEATHER AND/OR OBSTRUCTIONS TO VISIBILITY.

* THESE STATIONS ARE NOT UNDER NWS QUALITY CONTROL. THEY ALSO MAY NOT
  REPORT WEATHER SUCH AS PRECIPITATION OR FOG.

ILZ005-006-012>014-019>023-231300-
NORTHEAST ILLINOIS

CITY           SKY/WX    TMP DP  RH WIND       PRES   REMARKS
OHARE          CLEAR     49  42  77 NW7       29.72R
6HR MIN TEMP:  48; 6HR MAX TEMP:  59;

MIDWAY         CLEAR     49  44  83 NW7       29.71S
6HR MIN TEMP:  49; 6HR MAX TEMP:  59;

AURORA         CLEAR     41  38  89 NW8       29.72S
6HR MIN TEMP:  40; 6HR MAX TEMP:  55;

LANSING*       FOG       40  40 100 CALM      29.73R VSB 1/2
JOLIET*        CLEAR     48  46  90 CALM      29.73R
WAUKEGAN       CLEAR     47  41  80 NW5       29.71R
6HR MIN TEMP:  46; 6HR MAX TEMP:  56;

DUPAGE AIRPORT CLEAR     44  40  85 NW6       29.72R
6HR MIN TEMP:  44; 6HR MAX TEMP:  55;

WHEELING       CLEAR     48  42  80 NW9       29.72R
6HR MIN TEMP:  48; 6HR MAX TEMP:  58;

KANKAKEE*      FOG       39  39  98 CALM      29.74S VSB 1/2
MORRIS*        CLEAR     42  40  93 NW3       29.72S
LEWIS AIRPORT* CLEAR     44  44 100 NW3       29.72S
NORTHERLY ISL    N/A     51  43  74 W5          N/A
$$

WIZ051-052-058>065-066-070>072-231300-
SOUTHEAST WISCONSIN

CITY           SKY/WX    TMP DP  RH WIND       PRES   REMARKS
MILWAUKEE      CLEAR     48  40  73 NW8       29.71R
6HR MIN TEMP:  48; 6HR MAX TEMP:  57;

KENOSHA*       CLEAR     46  40  79 NW6       29.71R
RACINE*        CLEAR     47  39  74 NW10      29.72R
WAUKESHA       PTCLDY    43  37  81 W12       29.72R
WEST BEND      CLOUDY    45  41  87 NW9       29.71R
$$

INZ001>003-010>013-019-020-231300-
NORTHWEST INDIANA

CITY           SKY/WX    TMP DP  RH WIND       PRES   REMARKS
GARY*          CLEAR     43  41  93 W5        29.72R
MICHIGAN CITY* NOT AVBL
RENSSELAER*    NOT AVBL
VALPARAISO     FOG       45  45 100 SW3       29.73R VSB 1/4
$$

LMZ740>746-231300-
SOUTHERN LAKE MICHIGAN

STATION/POSITION TIME  SKY/WX   TEMP WIND        PRES    VSBY
                                AIR  DIR/SP/G
                 (UTC)          (F)  (DEG/KT/KT) (MB)    (MI)
HARRISON CRIB    1140            53  310/ 12/ 14   N/A
BURNHAM HARBOR   1200            51  280/  7/ 11   N/A
CALUMET HARBOR   1148            51  270/  3/  5 1005.9R
BURNS HARBOR     1140            47  250/  5/  8 1007.1R
MICHIGAN CITY    1140            46  230/ 11/ 11   N/A
$$

ABBREVIATIONS USED IN REMARKS
   TC - TEMPERATURE IN CELSIUS
  WCI - WIND CHILL INDEX
   HX - HEAT INDEX
  VSB - VISIBILITY
$$



USA.gov is the U.S. government's official web portal to all federal, state and local government web resources and services.